Weather History for Ustica, Italy

Change the Weather History Date:

Wednesday, January 15, 2014

  Actual Average Record
Temperature  
Mean Temperature 56 °F -  
Max Temperature 61 °F - - ()
Min Temperature 52 °F - - ()
Degree Days  
Heating Degree Days 8    
Growing Degree Days 6 (Base 50)    
Moisture  
Dew Point 46 °F    
Average Humidity 63    
Maximum Humidity 79    
Minimum Humidity 51    
Precipitation  
Precipitation 0.12 in - - ()
Sea Level Pressure  
Sea Level Pressure 29.89 in    
Wind  
Wind Speed 8 mph ()    
Max Wind Speed 16 mph    
Max Gust Speed -    
Visibility 12.0 miles    
Events Rain    
T = Trace of Precipitation, MM = Missing Value Source: Averaged Metar Reports

Daily Weather History Graph

Daily Weather History Graph

Search for Another Location

Airport:

Trip Planner

Search our weather history database for the weather conditions in past years. The results will help you decide how hot, cold, wet, or windy it might be!

Date:

Astronomy

Jan. 15, 2014 Rise Set
Actual Time 7:23 AM CET 5:09 PM CET
Civil Twilight 6:54 AM CET 5:38 PM CET
Nautical Twilight 6:22 AM CET 6:11 PM CET
Astronomical Twilight 5:50 AM CET 6:43 PM CET
Moon 4:51 PM CET (1/15) 6:29 AM CET (1/15)
Length of Visible Light 10h 43m
Length of Day
9h 45m
Full, 100% of the Moon is Illuminated
Jan 15
Full
Jan 16
Full
Jan 24
Last Quarter
Jan 30
New
Feb 6
First Quarter

Hourly Weather History & Observations

Time (CET) Temp. Dew Point Humidity Pressure Visibility Wind Dir Wind Speed Gust Speed Precip Events Conditions
12:00 AM 55 °F 49 °F 74% 29.88 in 12 mi SW 13.8 mph - -   Overcast
1:00 AM 55 °F 49 °F 74% 29.88 in 12 mi SW 15.0 mph - -   Partly Cloudy
2:00 AM 55 °F 47 °F 66% 29.89 in 12 mi SW 16.1 mph - -   Overcast
3:00 AM 55 °F 49 °F 74% 29.88 in 12 mi SW 9.2 mph - -   Partly Cloudy
4:00 AM 55 °F 50 °F 79% 29.88 in 12 mi SW 9.2 mph - -   Partly Cloudy
5:00 AM 55 °F 47 °F 65% 29.86 in 12 mi SW 9.2 mph - -   Scattered Clouds
6:00 AM 55 °F 47 °F 66% 29.86 in 12 mi SW 8.1 mph - -   Partly Cloudy
7:00 AM 54 °F 45 °F 63% 29.85 in 12 mi SW 9.2 mph - -   Partly Cloudy
8:00 AM 54 °F 46 °F 65% 29.85 in 12 mi SW 8.1 mph - -   Partly Cloudy
9:00 AM 54 °F 45 °F 63% 29.85 in 12 mi NW 6.9 mph - -   Partly Cloudy
10:00 AM 54 °F 44 °F 60% 29.85 in 12 mi NW 6.9 mph - -   Partly Cloudy
11:00 AM 55 °F 44 °F 58% 29.88 in 12 mi NW 5.8 mph - -   Partly Cloudy
12:00 PM 59 °F 46 °F 52% 29.88 in 12 mi NW 8.1 mph - -   Partly Cloudy
1:00 PM 60 °F 49 °F 56% 29.90 in 12 mi NNW 6.9 mph - -   Partly Cloudy
2:00 PM 60 °F 47 °F 53% 29.90 in 12 mi NW 5.8 mph - -   Partly Cloudy
3:00 PM 61 °F 48 °F 52% 29.90 in 12 mi NW 6.9 mph - -   Partly Cloudy
4:00 PM 58 °F 47 °F 59% 29.89 in 12 mi NW 5.8 mph - -   Partly Cloudy
5:00 PM 58 °F 47 °F 56% 29.89 in 12 mi North 4.6 mph - -   Partly Cloudy
6:00 PM 56 °F 43 °F 52% 29.90 in 12 mi North 5.8 mph - -   Partly Cloudy
7:00 PM 54 °F 44 °F 59% 29.91 in 12 mi North 6.9 mph - -   Partly Cloudy
8:00 PM 53 °F 47 °F 73% 29.92 in 12 mi North 5.8 mph - -   Partly Cloudy
9:00 PM 53 °F 47 °F 75% 29.99 in 12 mi WNW 5.8 mph - - Rain Rain
10:00 PM 53 °F 44 °F 64% 30.00 in 12 mi WNW 5.8 mph - - Rain Light Rain
11:00 PM 52 °F 39 °F 51% 29.99 in 12 mi West 6.9 mph - -   Mostly Cloudy